Location: Detroit
(42.3310°N, 83.0460°W)
Time: 00:42:06
(UTC-04:00)

A-11 Canister half - Pass Details

Date: 11 February 2023
Orbit: 1526 x 1682 km, 47.3° (Epoch: 20 March)

Event Time Altitude Azimuth Distance (km) Brightness Sun altitude
Rises 06:59:09 0° 275° (W) 4,679 - -7.1°
Exits shadow 07:01:27 - 278° (W) 3,943 10.5 -6.7°
Reaches altitude 10° 07:02:14 10° 279° (W) 3,694 10.3 -6.5°
Maximum altitude 07:11:29 65° 1° (N) 1,662 9.2 -4.9°
Drops below altitude 10° 07:20:52 10° 82° (E) 3,745 12.4 -3.2°
Sets 07:24:01 0° 86° (E) 4,747 13.2 -2.6°
